STARLINK-33706, 63461

Orbit data source: Space-Track

STARLINK-33706, 63461 is a payload satellite owned by SpaceX/Seattle (US) in LEO that was launched on Sun, 06 Apr 2025 UTC via an FALCON 9 launch vehicle from the Air Force Eastern Test Range (AFETR). Payload-class satellites include a variety of spacecraft equipped with specific instruments for various scientific and technological missions. These include communications satellites like Starlink; space stations such as the ISS; scientific satellites like the Hubble; Earth observation satellites from companies like Planet Labs, Umbra, and HawkEye 360; GPS; miniature CubeSats for education and research; and military/defense satellites.

Loading next visibility...
Identifier
63461, 2025-070B
Orbit
LEO
Country
Flag of USUS
Related business
Manufacturer
SpaceX/Seattle
Mission
Operational Commercial Communications
Bus & Motor
STARLINK V2MO, Unknown motor
Mass
575 kg wet, ~530 kg dry
Launch date (UTC)
2025-04-06 (1 year ago)
Launch vehicle
FALCON 9
Launch site
Air Force Eastern Test Range (AFETR)
Object type
Payload
Rocket body
Debris
Shape & HBR
Box + 2 Pan, 17.7 m
Radar Cross Section
36.964 m², Large (>1 m²)

Expand to show TLE details & history
Last TLE update: 12 hours ago

TLE from 12 hours ago
0 STARLINK-33706
1 63461U 25070B   26169.71854167  .00016380  00000-0  60294-3 0  9999
2 63461  43.0015  49.5800 0001462 267.1786  92.8898 15.27607033 68429
Epoch: 2026-06-18T17:14Z
TLE epoch observation values (Epoch: 2026-06-18T17:14:42.000Z)
Latitude
-0.00003°
Longitude
-116.05288°
Altitude
482.794 km
Speed
7.626 km/s
True Right ascension
03h 18m 19s
True Declination
0° 00' 00"
Sunlit
Object was in daylight at epoch
Visualization orbit readout
Latitude
Unknown
Longitude
Unknown
Altitude
Unknown
Speed
Unknown
Apparent Right ascension
Unknown
Apparent Declination
Unknown
Sunlit
N/A
Visualization observer readout
Local Sidereal Time
15:37:22
Azimuth
Unknown
Elevation
Unknown
Doppler factor
Unknown
Orbital elements
Apogee altitude
485.916 km
Perigee altitude
483.91 km
Semi-major axis
6,863.05 km
Eccentricity
0.00015
Inclination
43.0015°
RAAN
49.58°
Arg. of periapsis
267.1786°
True anomaly
92.90653°
Mean anomaly
92.8898°
Eccentric anomaly
92.89817°
Mean motion
3.8174 °/min
Orbital period
94.31 mins
BSTAR
0.00060294
Loading maneuver chart data...
Computing Atmospheric mass density...
Loading historical data...
Loading historical data...
Loading historical data...
Loading historical data...
Loading historical data...
Loading historical data...
Loading historical data...

Documentation

Showing up to 5 results
|